| time (UTC) | temp F | wind direction | speed knots | gust knots | rain 1hr in | rain 24hr in | rain mn in | humidity % | barometer mb |
| 20260504050003 | 62 | 164 | 3.5 | 9.6 | 0.00 | 0.00 | 0.00 | 71 | 1013.6 |
| 20260504045403 | 62 | 164 | 2.6 | 7.8 | 0.00 | 0.00 | 0.00 | 71 | 1013.7 |
| 20260504044503 | 63 | 165 | 2.6 | 6.1 | 0.00 | 0.00 | 0.00 | 71 | 1013.7 |
| 20260504043603 | 63 | 165 | 2.6 | 5.2 | 0.00 | 0.00 | 0.00 | 70 | 1013.8 |
| 20260504042703 | 63 | 166 | 1.7 | 6.1 | 0.00 | 0.00 | 0.00 | 69 | 1013.9 |
| 20260504041803 | 63 | 166 | 2.6 | 6.1 | 0.00 | 0.00 | 0.00 | 69 | 1013.8 |
| 20260504040903 | 64 | 163 | 2.6 | 7.0 | 0.00 | 0.00 | 0.00 | 69 | 1014.0 |
| 20260504040003 | 64 | 164 | 2.6 | 6.1 | 0.00 | 0.00 | 0.00 | 68 | 1014.1 |
| 20260504035424 | 64 | 167 | 1.7 | 5.2 | 0.00 | 0.00 | 0.00 | 67 | 1014.1 |
| 20260504034503 | 64 | 166 | 2.6 | 5.2 | 0.00 | 0.00 | 0.00 | 66 | 1014.0 |
| 20260504033603 | 65 | 167 | 2.6 | 5.2 | 0.00 | 0.00 | 0.00 | 66 | 1014.0 |
| 20260504032703 | 65 | 166 | 1.7 | 5.2 | 0.00 | 0.00 | 0.00 | 65 | 1013.9 |
| 20260504031803 | 65 | 166 | 2.6 | 6.1 | 0.00 | 0.00 | 0.00 | 65 | 1013.8 |
| 20260504030903 | 66 | 169 | 2.6 | 6.1 | 0.00 | 0.00 | 0.00 | 64 | 1013.7 |
| 20260504030002 | 66 | 165 | 2.6 | 5.2 | 0.00 | 0.00 | 0.00 | 64 | 1013.6 |
| 20260504025403 | 66 | 162 | 1.7 | 5.2 | 0.00 | 0.00 | 0.00 | 64 | 1013.5 |
| 20260504024503 | 66 | 167 | 2.6 | 6.1 | 0.00 | 0.00 | 0.00 | 63 | 1013.7 |
| 20260504023603 | 67 | 163 | 2.6 | 5.2 | 0.00 | 0.00 | 0.00 | 62 | 1013.7 |
| 20260504022703 | 67 | 162 | 2.6 | 4.3 | 0.00 | 0.00 | 0.00 | 61 | 1013.7 |
| 20260504021803 | 68 | 162 | 2.6 | 7.0 | 0.00 | 0.00 | 0.00 | 59 | 1013.6 |
| 20260504020903 | 68 | 159 | 2.6 | 6.1 | 0.00 | 0.00 | 0.00 | 58 | 1013.6 |
| 20260504020003 | 69 | 164 | 2.6 | 7.8 | 0.00 | 0.00 | 0.00 | 57 | 1013.5 |
| 20260504015403 | 69 | 164 | 3.5 | 7.8 | 0.00 | 0.00 | 0.00 | 55 | 1013.6 |
| 20260504014503 | 70 | 163 | 2.6 | 7.0 | 0.00 | 0.00 | 0.00 | 54 | 1013.5 |
| 20260504013603 | 70 | 166 | 3.5 | 8.7 | 0.00 | 0.00 | 0.00 | 53 | 1013.3 |
| 20260504012724 | 71 | 164 | 3.5 | 8.7 | 0.00 | 0.00 | 0.00 | 52 | 1013.1 |
| 20260504011803 | 71 | 164 | 3.5 | 8.7 | 0.00 | 0.00 | 0.00 | 50 | 1013.2 |
| 20260504010903 | 72 | 166 | 4.3 | 7.8 | 0.00 | 0.00 | 0.00 | 49 | 1013.3 |
| 20260504010024 | 73 | 166 | 4.3 | 10.4 | 0.00 | 0.00 | 0.00 | 47 | 1013.2 |
| 20260504005403 | 73 | 167 | 4.3 | 10.4 | 0.00 | 0.00 | 0.00 | 47 | 1013.3 |
| 20260504004503 | 74 | 164 | 5.2 | 11.3 | 0.00 | 0.00 | 0.00 | 45 | 1013.2 |
| 20260504003603 | 74 | 165 | 5.2 | 13.0 | 0.00 | 0.00 | 0.00 | 44 | 1013.3 |
| 20260504002703 | 75 | 163 | 5.2 | 13.0 | 0.00 | 0.00 | 0.00 | 43 | 1013.2 |
| 20260504001824 | 76 | 166 | 5.2 | 12.2 | 0.00 | 0.00 | 0.00 | 42 | 1013.4 |
| 20260504000904 | 76 | 164 | 6.1 | 13.9 | 0.00 | 0.00 | 0.00 | 41 | 1013.5 |
| 20260504000003 | 77 | 165 | 5.2 | 11.3 | 0.00 | 0.00 | 0.00 | 40 | 1013.5 |
| 20260503235403 | 78 | 159 | 7.0 | 13.9 | 0.00 | 0.00 | 0.00 | 39 | 1013.5 |
| 20260503234503 | 78 | 165 | 5.2 | 13.9 | 0.00 | 0.00 | 0.00 | 40 | 1013.5 |
| 20260503233602 | 79 | 168 | 5.2 | 13.0 | 0.00 | 0.00 | 0.00 | 38 | 1013.5 |
| 20260503232703 | 79 | 171 | 4.3 | 11.3 | 0.00 | 0.00 | 0.00 | 38 | 1013.6 |
| 20260503231803 | 79 | 169 | 5.2 | 12.2 | 0.00 | 0.00 | 0.00 | 38 | 1013.7 |
| 20260503230903 | 80 | 165 | 5.2 | 13.0 | 0.00 | 0.00 | 0.00 | 37 | 1013.8 |
| 20260503230024 | 80 | 165 | 6.1 | 14.8 | 0.00 | 0.00 | 0.00 | 36 | 1013.8 |
| 20260503225403 | 80 | 167 | 5.2 | 13.0 | 0.00 | 0.00 | 0.00 | 36 | 1014.0 |
| 20260503224503 | 80 | 164 | 7.0 | 14.8 | 0.00 | 0.00 | 0.00 | 37 | 1014.0 |
| 20260503223624 | 80 | 164 | 6.1 | 13.0 | 0.00 | 0.00 | 0.00 | 37 | 1013.9 |
| 20260503222703 | 81 | 170 | 6.1 | 12.2 | 0.00 | 0.00 | 0.00 | 36 | 1014.0 |
| 20260503221803 | 81 | 168 | 6.1 | 11.3 | 0.00 | 0.00 | 0.00 | 35 | 1014.0 |
| 20260503220903 | 81 | 167 | 6.1 | 12.2 | 0.00 | 0.00 | 0.00 | 35 | 1014.2 |
| 20260503220024 | 81 | 170 | 5.2 | 10.4 | 0.00 | 0.00 | 0.00 | 37 | 1014.2 |
| 20260503215403 | 81 | 173 | 5.2 | 11.3 | 0.00 | 0.00 | 0.00 | 35 | 1014.3 |
| 20260503214503 | 82 | 181 | 6.1 | 15.6 | 0.00 | 0.00 | 0.00 | 35 | 1014.4 |
| 20260503213603 | 82 | 171 | 5.2 | 14.8 | 0.00 | 0.00 | 0.00 | 36 | 1014.6 |
| 20260503212703 | 82 | 189 | 5.2 | 12.2 | 0.00 | 0.00 | 0.00 | 37 | 1014.8 |
| 20260503211803 | 82 | 176 | 6.1 | 12.2 | 0.00 | 0.00 | 0.00 | 34 | 1014.9 |
| 20260503210902 | 82 | 207 | 4.3 | 9.6 | 0.00 | 0.00 | 0.00 | 35 | 1014.9 |
| 20260503210003 | 82 | 188 | 5.2 | 13.9 | 0.00 | 0.00 | 0.00 | 35 | 1015.2 |
| 20260503205403 | 82 | 183 | 5.2 | 12.2 | 0.00 | 0.00 | 0.00 | 36 | 1015.3 |
| 20260503204524 | 82 | 173 | 6.1 | 12.2 | 0.00 | 0.00 | 0.00 | 35 | 1015.5 |
| 20260503203602 | 82 | 185 | 3.5 | 9.6 | 0.00 | 0.00 | 0.00 | 38 | 1015.6 |
| 20260503202703 | 82 | 185 | 4.3 | 9.6 | 0.00 | 0.00 | 0.00 | 36 | 1015.9 |
| 20260503201824 | 82 | 183 | 5.2 | 13.9 | 0.00 | 0.00 | 0.00 | 36 | 1016.0 |
| 20260503200903 | 83 | 195 | 3.5 | 7.8 | 0.00 | 0.00 | 0.00 | 37 | 1016.1 |
| 20260503200002 | 82 | 183 | 4.3 | 10.4 | 0.00 | 0.00 | 0.00 | 38 | 1016.2 |
| 20260503195403 | 82 | 180 | 4.3 | 10.4 | 0.00 | 0.00 | 0.00 | 39 | 1016.3 |
| 20260503194504 | 82 | 189 | 4.3 | 11.3 | 0.00 | 0.00 | 0.00 | 37 | 1016.5 |
| 20260503193603 | 82 | 179 | 5.2 | 12.2 | 0.00 | 0.00 | 0.00 | 38 | 1016.6 |
| 20260503192703 | 81 | 180 | 4.3 | 10.4 | 0.00 | 0.00 | 0.00 | 37 | 1016.7 |
| 20260503191803 | 81 | 190 | 5.2 | 12.2 | 0.00 | 0.00 | 0.00 | 41 | 1017.1 |
| 20260503190924 | 80 | 180 | 5.2 | 11.3 | 0.00 | 0.00 | 0.00 | 42 | 1017.1 |
| 20260503190003 | 81 | 181 | 5.2 | 13.0 | 0.00 | 0.00 | 0.00 | 43 | 1017.3 |
| 20260503185402 | 80 | 171 | 6.1 | 13.0 | 0.00 | 0.00 | 0.00 | 42 | 1017.4 |
| 20260503184503 | 80 | 187 | 5.2 | 11.3 | 0.00 | 0.00 | 0.00 | 42 | 1017.5 |
| 20260503183603 | 80 | 181 | 4.3 | 10.4 | 0.00 | 0.00 | 0.00 | 42 | 1017.6 |
| 20260503182703 | 80 | 187 | 5.2 | 9.6 | 0.00 | 0.00 | 0.00 | 41 | 1017.7 |
| 20260503181803 | 80 | 232 | 3.5 | 11.3 | 0.00 | 0.00 | 0.00 | 41 | 1017.8 |
| 20260503180902 | 80 | 193 | 4.3 | 9.6 | 0.00 | 0.00 | 0.00 | 42 | 1018.1 |
| 20260503180003 | 80 | 194 | 4.3 | 9.6 | 0.00 | 0.00 | 0.00 | 44 | 1018.2 |
| 20260503175403 | 79 | 196 | 4.3 | 10.4 | 0.00 | 0.00 | 0.00 | 44 | 1018.3 |
| 20260503174503 | 79 | 199 | 4.3 | 10.4 | 0.00 | 0.00 | 0.00 | 44 | 1018.4 |
| 20260503173603 | 78 | 190 | 5.2 | 10.4 | 0.00 | 0.00 | 0.00 | 45 | 1018.6 |
| 20260503172702 | 78 | 215 | 3.5 | 7.8 | 0.00 | 0.00 | 0.00 | 47 | 1018.7 |
| 20260503171803 | 78 | 206 | 4.3 | 10.4 | 0.00 | 0.00 | 0.00 | 47 | 1018.9 |
| 20260503170924 | 77 | 201 | 4.3 | 8.7 | 0.00 | 0.00 | 0.00 | 49 | 1019.1 |
| 20260503150925 | 68 | 206 | 5.2 | 9.6 | 0.00 | 0.00 | 0.00 | 63 | 1019.7 |
| 20260503130904 | 57 | 211 | 1.7 | 5.2 | 0.00 | 0.00 | 0.00 | 82 | 1019.3 |
| 20260503080904 | 58 | 193 | 0.9 | 2.6 | 0.00 | 0.00 | 0.00 | 75 | 1017.9 |
| 20260503072704 | 58 | 217 | 0.9 | 2.6 | 0.00 | 0.00 | 0.00 | 72 | 1018.2 |
| 20260503071804 | 59 | 217 | 0.0 | 2.6 | 0.00 | 0.00 | 0.00 | 72 | 1018.2 |
| 20260503070903 | 59 | 216 | 0.0 | 1.7 | 0.00 | 0.00 | 0.00 | 71 | 1018.3 |